Location: Brno
(49.2000°N, 16.6330°E)
Time: 13:32:14
(UTC+02:00)

ISS - Visible Passes

Search period start: 22 May 2015 00:00
Search period end: 01 June 2015 00:00
Orbit: 399 x 404 km, 51.6° (Epoch: 22 May)

Date Brightness Start Highest point End Pass type
(mag) Time Alt. Az. Time Alt. Az. Time Alt. Az.
22 May -1.2 01:56:47 17° ESE 01:56:47 17° ESE 01:58:05 10° E visible
22 May -3.4 03:29:21 18° WSW 03:31:40 85° SSE 03:34:57 10° ENE visible
23 May -3.3 02:37:53 46° SSW 02:38:31 57° SSE 02:41:44 10° ENE visible
23 May -2.7 04:11:45 10° W 04:14:59 56° N 04:18:13 10° ENE visible
24 May -2.0 01:46:21 29° ESE 01:46:21 29° ESE 01:48:26 10° E visible
24 May -3.0 03:18:54 13° W 03:21:42 67° NNW 03:24:58 10° ENE visible
25 May -0.6 00:54:43 11° E 00:54:43 11° E 00:54:56 10° E visible
25 May -3.4 02:27:17 37° WSW 02:28:26 88° NNW 02:31:43 10° ENE visible
25 May -2.5 04:01:49 10° WNW 04:05:02 53° N 04:08:15 10° E visible
26 May -3.1 01:35:35 56° ESE 01:35:35 56° ESE 01:38:25 10° ENE visible
26 May -2.6 03:08:27 10° W 03:11:40 55° N 03:14:54 10° ENE visible
27 May -1.4 00:43:47 20° E 00:43:47 20° E 00:45:02 10° ENE visible
27 May -3.0 02:16:20 21° W 02:18:18 64° NNW 02:21:33 10° ENE visible
27 May -2.7 03:51:43 10° WNW 03:54:57 58° N 03:58:11 10° E visible
28 May -3.4 01:24:23 59° W 01:24:56 82° NNW 01:28:12 10° ENE visible
28 May -2.5 02:58:19 10° WNW 03:01:32 53° N 03:04:45 10° E visible
29 May -3.0 00:32:14 51° E 00:32:14 51° E 00:34:50 10° ENE visible
29 May -2.6 02:04:53 10° W 02:08:05 54° N 02:11:18 10° ENE visible
29 May -3.1 03:41:26 10° WNW 03:44:42 75° NNE 03:47:59 10° ESE visible
29 May -2.0 23:39:38 27° E 23:39:38 27° E 23:41:23 10° ENE visible
30 May -2.9 01:12:06 15° W 01:14:37 61° N 01:17:52 10° ENE visible
30 May -2.8 02:48:01 10° WNW 02:51:16 60° N 02:54:31 10° E visible
30 May -2.5 22:45:01 28° SE 22:45:01 28° SE 22:47:49 10° E visible
31 May -3.3 00:17:55 10° WSW 00:21:10 77° NNW 00:24:26 10° ENE visible
31 May -2.6 01:54:34 10° WNW 01:57:47 53° N 02:00:59 10° E visible
31 May -3.4 03:31:02 10° WNW 03:34:17 73° SSW 03:37:33 10° ESE visible
31 May -1.8 21:49:30 10° S 21:51:42 17° SE 21:53:58 10° E visible
31 May -3.5 23:24:28 10° WSW 23:27:43 77° SSE 23:30:59 10° ENE visible
